053  
ASUS41 KCLE 201112  
RWRCLE  
OHIO REGIONAL WEATHER ROUNDUP  
NATIONAL WEATHER SERVICE WILMINGTON, OH  
700 AM EDT WED JUN 20 2018  
 
NOTE: "FAIR" INDICATES FEW OR NO CLOUDS BELOW 12,000 FEET WITH NO  
SIGNIFICANT WEATHER AND/OR S TO VISIBILITY
.  
 
OHZ001>008-015>018-024>027-034-035-043-044-201200-  
NORTHWEST OHIO  
 
CITY SKY/WX TMP DP RH WIND PRES REMARKS
 
DEFIANCE CLOUDY 68 65 90 CALM 29.88S  
FINDLAY CLOUDY 71 67 87 CALM 29.88R  
TOLEDO EXPRESS CLOUDY 70 63 78 NE8 29.88S  
TOLEDO EXEC CLOUDY 68 61 78 E7 29.89R  
LIMA CLOUDY 71 70 96 SW6 29.89S FOG  

 
 
OHZ009>014-019>023-028>033-038-089-201200-  
NORTHEAST OHIO  
 
CITY SKY/WX TMP DP RH WIND PRES REMARKS
 
CLE-HOPKINS LGT RAIN 70 60 70 CALM 29.90S  
CLE-LAKEFRONT CLOUDY 70 56 61 CALM 29.87F  
CUY CO. ARPT CLOUDY 70 61 73 CALM 29.90  
LORAIN-ELYRIA CLOUDY 66 54 65 NE8 29.89S  
ASHTABULA CLOUDY 62 61 96 CALM 29.91S  
AKRON-CANTON PTSUNNY 70 60 70 S3 29.90S  
WOOSTER FAIR 68 62 81 S3 29.90S  
MANSFIELD CLOUDY 70 68 93 S5 29.90S  
YOUNGSTOWN CLOUDY 66 62 87 E3 29.89F  

 
 
OHZ042-051>053-060>062-070>072-077>081-201200-  
SOUTHWEST OHIO  
 
CITY SKY/WX TMP DP RH WIND PRES REMARKS
 
CINC-COVINGTON FAIR 72 69 90 CALM 29.91S  
CINC-LUNKEN FAIR 71 71 100 CALM 29.91R  
HAMILTON FAIR 71 71 100 CALM 29.91S FOG  
DAYTON MOCLDY 70 70 100 W3 29.91S  
WRIGHT-PAT AFB MOCLDY 70 69 96 CALM 29.90R  
DAYTON GENERAL FAIR 72 69 90 S3 29.90S FOG  
WILMINGTON FAIR 69 69 100 SW3 29.92R FOG  

 
 
OHZ036-037-039>041-045>050-054>059-063>069-073>076-082>088-201200-  
CENTRAL AND SOUTHEAST OHIO  
 
CITY SKY/WX TMP DP RH WIND PRES REMARKS
 
COLUMBUS CLOUDY 73 71 93 CALM 29.90R FOG  
OSU AIRPORT MOCLDY 72 71 97 SW3 29.91R FOG  
BOLTON FIELD CLOUDY 70 70 100 CALM 29.91R FOG  
RICKENBACK AFB FAIR 70 71 100 SW6 29.90R  
NEWARK N/A 73 72 96 SW5 29.90R FOG  
MARION FAIR 70 69 97 S3 29.90S FOG  
LANCASTER MOCLDY 72 71 97 CALM 29.91R  
ZANESVILLE FOG 72 70 93 SW5 29.90R VSB 1/4  
NEW PHILLY PTSUNNY 70 66 87 CALM 29.90R  

 
 
 
CLICK HERE TO GO TO PREVIOUS BULLETINS.

The Nexlab OH Page
The Nexlab PA Page Main Text Page